Location: Newark
(52.4787°S, 179.0532°W)
Time: 08:54:51
(UTC+00:00)

Transit 2A Rocket - Pass Details

Date: 26 November 2019
Orbit: 594 x 909 km, 66.7° (Epoch: 08 December)

Event Time Altitude Azimuth Distance (km) Brightness Sun altitude
Rises 02:03:49 0° 226° (SW) 3,562 8.5 48.4°
Reaches altitude 10° 02:06:41 10° 215° (SW) 2,628 7.9 48.1°
Maximum altitude 02:12:05 31° 154° (SSE) 1,569 6.6 47.4°
Drops below altitude 10° 02:17:23 10° 93° (E) 2,567 7.5 46.7°
Sets 02:20:08 0° 82° (E) 3,467 8.1 46.3°
